Location: Beaurevoir
(49.9971°N, 3.3085°E)
Time: 12:51:57
(UTC+00:00)

Cosmos 1825 - Pass Details

Date: 23 May 2024
Orbit: 439 x 443 km, 82.5° (Epoch: 16 June)

Event Time Altitude Azimuth Distance (km) Brightness Sun altitude
Exits shadow 02:34:17 - 165° (SSE) 2,296 5.2 -9.9°
Reaches altitude 10° 02:36:08 10° 156° (SSE) 1,564 4.4 -9.7°
Maximum altitude 02:39:11 31° 92° (E) 806 3.6 -9.4°
Drops below altitude 10° 02:42:16 10° 29° (NNE) 1,582 6.2 -9.1°
Sets 02:44:29 0° 19° (NNE) 2,461 7.0 -8.8°
